Location: Beekmeers
(50.8953°N, 3.6968°E)
Time: 01:44:27
(UTC+00:00)

USA 267 - Pass Details

Date: 23 May 2024
Orbit: 1100 x 1107 km, 123.0° (Epoch: 21 May)

Event Time Altitude Azimuth Distance (km) Brightness Sun altitude
Rises 00:15:45 0° 58° (ENE) 3,923 6.8 -18.1°
Reaches altitude 10° 00:18:14 10° 60° (ENE) 2,963 6.0 -18.0°
Maximum altitude 00:24:48 80° 147° (SSE) 1,120 3.2 -17.8°
Enters shadow 00:30:21 15° 235° (SW) 2,576 4.8 -17.7°
